Home   Weather   Oulu   Past weeks

Flag for Finland Past Weather in Oulu, Finland — Yesterday and Last 2 Weeks

Now
27 °F

Sunny.


Feels Like: 16 °F
Forecast: 15 / 20 °F
Wind: 13 mph from Northwest

Location: Oulu Airport

Current Time: Dec 9, 2016 at 11:54:33 am

Latest Report: Dec 9, 2016 at 11:20 am


Visibility: 10 mi

Pressure: 29.36 "Hg

Humidity: 69%

Dew Point: 18 °F

Location of OuluLocation

Past Weather in Oulu — Graph

°F

Oulu Temperature Yesterday

Maximum temperature yesterday: 34 °F (at 6:50 am)
Minimum temperature yesterday: 28 °F (at 12:20 am)
Average temperature yesterday: 33 °F

High & Low Weather Summary for the Past Weeks

 TemperatureHumidityPressure
High37 °F (Dec 7, 4:50 am)100% (Nov 25, 2:20 am)30.18 "Hg (Nov 25, 2:20 am)
Low-9 °F (Dec 6, 10:20 am)69% (Dec 9, 8:50 am)29.03 "Hg (Nov 26, 12:20 pm)
Average22 °F91%29.61 "Hg
* Reported Nov 24 10:20 am — Dec 9 10:20 am, Oulu, Weather by CustomWeather, © 2016

Note: Actual official high and low records may vary slightly from our data, if they occured in-between our weather recording intervals... More about our weather records

Advertising

Oulu Weather History for the Previous 24 Hours

Scroll right to see more
 ConditionsComfort  
Time TempWeatherWind HumidityBarometerVisibility
10:20 am
Fri, Dec 9
27 °FPassing clouds.9 mph69%29.36 "HgN/A
9:50 am27 °FPassing clouds.12 mph69%29.33 "HgN/A
9:20 am27 °FPassing clouds.13 mph69%29.33 "HgN/A
8:50 am28 °FPassing clouds.13 mph69%29.33 "HgN/A
8:20 am28 °FPassing clouds.10 mph74%29.30 "HgN/A
7:50 am28 °FClear.10 mph80%29.30 "Hg10 mi
7:20 am28 °FPassing clouds.7 mph80%29.30 "HgN/A
6:20 am28 °FPassing clouds.8 mph93%29.30 "HgN/A
5:50 am28 °FMostly cloudy.7 mph93%29.30 "HgN/A
5:20 am30 °FOvercast.6 mph86%29.30 "HgN/A
4:50 am28 °FOvercast.6 mph93%29.30 "HgN/A
4:20 am30 °FOvercast.6 mph86%29.30 "HgN/A
3:50 am28 °FPassing clouds.6 mph93%29.27 "HgN/A
3:20 am30 °FPassing clouds.8 mph86%29.27 "HgN/A
2:50 am30 °FPassing clouds.7 mph86%29.30 "HgN/A
2:20 am30 °FClear.7 mph86%29.30 "Hg10 mi
1:50 am30 °FPassing clouds.7 mph100%29.27 "HgN/A
1:20 am32 °FOvercast.7 mph93%29.30 "HgN/A
12:50 am32 °FPassing clouds.9 mph93%29.30 "HgN/A
12:20 am32 °FPassing clouds.12 mph93%29.27 "HgN/A
11:50 pm
Thu, Dec 8
34 °FPassing clouds.12 mph93%29.30 "HgN/A
11:20 pm34 °FMostly cloudy.12 mph93%29.30 "HgN/A
10:50 pm34 °FMostly cloudy.9 mph100%29.30 "HgN/A
10:20 pm34 °FLow clouds.8 mph100%29.30 "HgN/A
9:50 pm34 °FLow clouds.7 mph100%29.30 "HgN/A
9:20 pm34 °FLow clouds.7 mph100%29.30 "HgN/A
8:50 pm34 °FLow clouds.7 mph100%29.30 "HgN/A
8:20 pm34 °FLow clouds.6 mph93%29.30 "HgN/A
7:50 pm32 °FMostly cloudy.6 mph100%29.30 "Hg4 mi
7:20 pm32 °FMostly cloudy.7 mph100%29.30 "HgN/A
6:50 pm32 °FMostly cloudy.10 mph100%29.33 "Hg4 mi
6:20 pm32 °FLow clouds.10 mph100%29.33 "HgN/A
5:50 pm32 °FLow clouds.8 mph100%29.33 "HgN/A
5:20 pm34 °FLow clouds.9 mph93%29.33 "HgN/A
4:50 pm34 °FLow clouds.9 mph100%29.33 "HgN/A
4:20 pm34 °FMostly cloudy.7 mph100%29.33 "HgN/A
3:50 pm34 °FLow clouds.6 mph100%29.33 "HgN/A
3:20 pm32 °FIce fog.5 mph100%29.33 "Hg2 mi
2:50 pm32 °FIce fog.6 mph100%29.33 "Hg2 mi
2:20 pm32 °FLow clouds.6 mph100%29.33 "HgN/A
1:50 pm32 °FIce fog.6 mph100%29.33 "Hg2 mi
1:20 pm32 °FLow clouds.9 mph100%29.33 "Hg5 mi
12:50 pm32 °FIce fog.6 mph100%29.33 "Hg2 mi
12:20 pm32 °FIce fog.7 mph100%29.33 "Hg1 mi
11:50 am34 °FFog.7 mph100%29.33 "Hg1 mi
11:20 am34 °FFog.7 mph100%29.33 "Hg2 mi
Weather by CustomWeather, © 2016

See weather overviewHow to use our weather pages